CZ-4B R/B, 43656

Orbit data source: Space-Track

CZ-4B R/B, 43656 is space debris in SSO originally from a launch on Wed, 24 Oct 2018 UTC via a CHANG ZHENG 4B launch vehicle from the Taiyaun Space Center, China (TSC). Debris objects in space refer to the collection of defunct objects orbiting the Earth. Examples of debris include non-operational satellites, rocket bodies, and fragments generated from explosions, collisions, or faulty payload assembly.

Loading next visibility...
Identifier
43656, 2018-081B
Orbit
SSO
Last TLE update
12 hours ago
Origin
Flag of CNAliExpress, Alibaba Group (CN / PRC)
Manufacturer
SAST?
Mission
Commercial Communications
Bus & Motor
Unknown
Mass
1,020 kg wet, 20 kg dry
Launch date (UTC)
2018-10-24 (7 years ago)
Launch vehicle
CHANG ZHENG 4B
Launch site
Taiyaun Space Center, China (TSC)
Object type
Payload
Rocket body
Debris
Shape & HBR
Box, 0.3 m
Radar Cross Section
0.135 m², Large (>1 m²)

Expand to show TLE details & history

TLE from 12 hours ago
0 CZ-4B R/B
1 43656U 18081B   25191.59862131  .00000064  00000-0  36310-4 0  9992
2 43656  99.3925  77.0556 0205371 170.1514 190.3788 14.31656970350422
Epoch: 2025-07-10T14:22Z
TLE epoch observation values (Epoch: 2025-07-10T14:22:00.881Z)
Latitude
-0.00002°
Longitude
-67.21067°
Altitude
933.958 km
Speed
7.31 km/s
True Right ascension
05h 08m 13s
True Declination
0° 00' 00"
Sunlit
Object was in daylight at epoch
Visualization orbit readout
Latitude
48.30338°
Longitude
-77.31461°
Altitude
864.172 km
Speed
7.388 km/s
Apparent Right ascension
03h 32m 04s
Apparent Declination
7° 55' 16"
Sunlit
Object is in daylight
Visualization observer readout
Local Sidereal Time
14:37:10
Azimuth
342° N
Elevation
-40.508°
Doppler factor
1
Orbital elements
Apogee altitude
930.45 km
Perigee altitude
636.296 km
Semi-major axis
7,161.51 km
Eccentricity
0.02054
Inclination
99.3925°
RAAN
77.0556°
Arg. of periapsis
170.1514°
True anomaly
Unknown
Mean anomaly
190.3788°
Eccentric anomaly
Unknown
Mean motion
3.58126 °/min
Orbital period
100.52 mins
BSTAR
0.00003631
Loading maneuver chart data...
Loading SW <> Apogee altitude chart data...
Loading historical data...
Loading historical data...
Loading historical data...
Loading historical data...
Loading historical data...
Loading historical data...
Loading historical data...

CZ-4B R/B Visibility forecast

Observer location: undefined°, undefined°

Span
Click to sort rows by Start time (UTC) header in descending order
Start Az.
Max El. time (UTC)
Max El. Az.
Max El.
End time (UTC)
End Az.
6 mins2025-07-11 04:23:38.193Z48.094° ENE2025-07-11 04:26:38.193Z92.188° ESE19.648°2025-07-11 04:29:38.193Z140.035° SSE
6 mins2025-07-11 06:03:38.193Z344.235° N2025-07-11 06:06:38.193Z280.609° WNW28.233°2025-07-11 06:09:38.193Z232.09° WSW
9 mins2025-07-11 15:39:38.193Z133.752° SE2025-07-11 15:43:38.193Z78.489° E33.702°2025-07-11 15:48:38.193Z1.797° NNE
8 mins2025-07-11 17:19:38.193Z214.8° SW2025-07-11 17:23:38.193Z269.286° W23.929°2025-07-11 17:27:38.193Z318.202° NNW
|